This is the latest recevied weather packets stored in our database for station/object KC9DRE. If no packets are shown the sender has not sent any weather packets the latest 1 day(s).
| Time | Temp. | Humidity | Pressure | Rain* | Wind** | Luminosity | Snow |
|---|---|---|---|---|---|---|---|
| 1777986450 | 15.56° C | 86% | 1009.5 hPa | 0 mm | 0 m/s | 134 W/m² | - |
| 1777986148 | 15.56° C | 86% | 1009.6 hPa | 0 mm | 0 m/s | 128 W/m² | - |
| 1777985845 | 15° C | 87% | 1009.7 hPa | 0 mm | 0 m/s | 122 W/m² | - |
| 1777985542 | 15° C | 88% | 1009.8 hPa | 0 mm | 0.45 m/s, 268° | 127 W/m² | - |
| 1777985239 | 15° C | 88% | 1009.5 hPa | 0 mm | 0 m/s | 120 W/m² | - |
| 1777984935 | 15° C | 88% | 1009.8 hPa | 0 mm | 0.45 m/s, 311° | 119 W/m² | - |
| 1777984631 | 15° C | 89% | 1009.7 hPa | 0 mm | 0.45 m/s, 44° | 111 W/m² | - |
| 1777984328 | 15° C | 90% | 1009.9 hPa | 0 mm | 0 m/s | 101 W/m² | - |
| 1777984025 | 14.44° C | 90% | 1009.8 hPa | 0 mm | 0 m/s | 92 W/m² | - |
| 1777983722 | 14.44° C | 90% | 1010 hPa | 0 mm | 0.45 m/s, 296° | 85 W/m² | - |
| 1777983418 | 14.44° C | 91% | 1009.8 hPa | 0 mm | 0 m/s | 74 W/m² | - |
| 1777983115 | 14.44° C | 92% | 1009.8 hPa | 0 mm | 0.89 m/s, 86° | 70 W/m² | - |
| 1777982811 | 13.89° C | 92% | 1009.9 hPa | 0 mm | 0 m/s | 53 W/m² | - |
| 1777982507 | 13.89° C | 92% | 1010.1 hPa | 0 mm | 0 m/s | 30 W/m² | - |
| 1777982201 | 13.89° C | 93% | 1010 hPa | 0 mm | 0 m/s | 16 W/m² | - |
| 1777981899 | 13.89° C | 93% | 1009.9 hPa | 0 mm | 0 m/s | 14 W/m² | - |
| 1777981596 | 13.89° C | 93% | 1009.9 hPa | 0 mm | 0 m/s | 13 W/m² | - |
| 1777981292 | 13.89° C | 93% | 1009.7 hPa | 0 mm | 0 m/s | 20 W/m² | - |
| 1777980989 | 13.89° C | 93% | 1009.7 hPa | 0 mm | 0 m/s | 20 W/m² | - |
| 1777980686 | 13.89° C | 94% | 1010 hPa | 0 mm | 0 m/s | 12 W/m² | - |
| 1777980381 | 13.89° C | 94% | 1010.1 hPa | 0 mm | 0 m/s | 17 W/m² | - |
| 1777980081 | 13.89° C | 93% | 1010 hPa | 0 mm | 0 m/s | 12 W/m² | - |
| 1777979779 | 13.89° C | 93% | 1010 hPa | 0 mm | 0 m/s | 15 W/m² | - |
| 1777979476 | 13.89° C | 93% | 1010.2 hPa | 0 mm | 0 m/s | 12 W/m² | - |
| 1777979172 | 13.89° C | 92% | 1010.1 hPa | 0 mm | 0 m/s | 8 W/m² | - |
* Rain latest hour (hover to see other rain measurements)
** Current wind speed in m/s (hover to see current wind gust speed)